FW7906 Weather Reports


time (UTC)temp
C
wind
direction
speed
KPH
gust
KPH
rain 1hr
cm
rain 24hr
cm
rain mn
cm
humidity
%
barometer
mb
20260503225154 17 292 8.0 12.9 0.00 0.00 0.00 27 1015.3
20260503224651 17 291 8.0 12.9 0.00 0.00 0.00 27 1015.4
20260503224149 17 300 8.0 11.3 0.00 0.00 0.00 26 1015.3
20260503223647 17 257 8.0 11.3 0.00 0.00 0.00 28 1015.0
20260503223143 17 240 1.6 16.1 0.00 0.00 0.00 26 1015.2
20260503222640 17 192 0.0 3.2 0.00 0.00 0.00 28 1015.3
20260503222138 17 242 8.0 11.3 0.00 0.00 0.00 26 1015.3
20260503221636 17 309 4.8 11.3 0.00 0.00 0.00 26 1015.4
20260503221133 17 355 11.3 22.5 0.00 0.00 0.00 26 1015.3
20260503220630 17 341 6.4 12.9 0.00 0.00 0.00 27 1015.5
20260503220126 17 253 8.0 16.1 0.00 0.00 0.00 26 1015.3
20260503215624 17 319 11.3 17.7 0.00 0.00 0.00 25 1015.5
20260503215120 17 291 6.4 11.3 0.00 0.00 0.00 26 1015.5
20260503214619 17 356 25.7 30.6 0.00 0.00 0.00 24 1015.6
20260503214115 17 289 8.0 12.9 0.00 0.00 0.00 26 1015.6
20260503213614 17 269 6.4 8.0 0.00 0.00 0.00 26 1015.5
20260503213110 17 203 11.3 17.7 0.00 0.00 0.00 25 1015.6
20260503212608 17 233 4.8 17.7 0.00 0.00 0.00 26 1015.5
20260503212105 17 295 8.0 12.9 0.00 0.00 0.00 27 1015.4
20260503211602 17 323 4.8 16.1 0.00 0.00 0.00 26 1015.6
20260503211057 17 44 14.5 17.7 0.00 0.00 0.00 27 1015.2
20260503210554 17 288 14.5 20.9 0.00 0.00 0.00 27 1015.4
20260503210050 17 325 8.0 17.7 0.00 0.00 0.00 27 1015.5
20260503205547 17 158 6.4 16.1 0.00 0.00 0.00 28 1015.6
20260503205043 17 312 16.1 17.7 0.00 0.00 0.00 26 1015.6
20260503204540 17 143 4.8 17.7 0.00 0.00 0.00 29 1015.8
20260503204038 17 257 11.3 16.1 0.00 0.00 0.00 26 1015.6
20260503203535 17 211 4.8 8.0 0.00 0.00 0.00 28 1015.6
20260503203032 17 248 4.8 16.1 0.00 0.00 0.00 29 1015.5
20260503202530 17 273 9.7 16.1 0.00 0.00 0.00 28 1015.4
20260503202027 17 270 8.0 16.1 0.00 0.00 0.00 26 1015.8
20260503201525 17 233 6.4 8.0 0.00 0.00 0.00 30 1016.2
20260503201022 17 260 4.8 16.1 0.00 0.00 0.00 27 1016.1
20260503200518 17 333 14.5 17.7 0.00 0.00 0.00 28 1016.1
20260503200015 17 267 8.0 17.7 0.00 0.00 0.00 30 1016.1
20260503195513 17 292 8.0 12.9 0.00 0.00 0.00 27 1016.1
20260503195009 17 323 6.4 22.5 0.00 0.00 0.00 27 1016.2
20260503194507 17 221 3.2 16.1 0.00 0.00 0.00 30 1016.3
20260503194006 17 313 8.0 17.7 0.00 0.00 0.00 30 1016.5
20260503193503 17 28 8.0 12.9 0.00 0.00 0.00 28 1016.6
20260503192958 16 210 6.4 22.5 0.00 0.00 0.00 27 1016.8
20260503192454 16 335 17.7 25.7 0.00 0.00 0.00 27 1016.7
20260503191950 17 288 11.3 16.1 0.00 0.00 0.00 30 1016.8
20260503191448 16 89 0.0 8.0 0.00 0.00 0.00 37 1016.9
20260503190944 16 237 8.0 12.9 0.00 0.00 0.00 30 1016.9
20260503190442 16 299 11.3 16.1 0.00 0.00 0.00 30 1016.9
20260503185938 16 225 8.0 11.3 0.00 0.00 0.00 30 1017.0
20260503185435 16 324 9.7 12.9 0.00 0.00 0.00 29 1017.2
20260503184934 16 256 8.0 16.1 0.00 0.00 0.00 34 1016.9
20260503184431 16 319 9.7 12.9 0.00 0.00 0.00 30 1017.4
20260503183927 16 336 4.8 11.3 0.00 0.00 0.00 32 1017.3
20260503183424 15 240 11.3 20.9 0.00 0.00 0.00 32 1017.3
20260503182921 15 345 12.9 22.5 0.00 0.00 0.00 30 1017.4
20260503182420 15 318 9.7 20.9 0.00 0.00 0.00 29 1017.2
20260503181917 15 284 14.5 20.9 0.00 0.00 0.00 30 1017.4
20260503181414 16 188 14.5 17.7 0.00 0.00 0.00 31 1017.4
20260503180910 15 0 6.4 16.1 0.00 0.00 0.00 32 1017.5
20260503180408 15 301 12.9 17.7 0.00 0.00 0.00 32 1017.6
20260503175904 15 204 12.9 22.5 0.00 0.00 0.00 31 1017.6
20260503175403 15 316 6.4 12.9 0.00 0.00 0.00 34 1017.8
20260503174858 15 243 8.0 20.9 0.00 0.00 0.00 32 1017.7
20260503174356 15 301 8.0 25.7 0.00 0.00 0.00 32 1017.7
20260503173851 15 282 4.8 17.7 0.00 0.00 0.00 35 1017.6
20260503173348 14 260 8.0 11.3 0.00 0.00 0.00 33 1017.9
20260503172844 14 29 9.7 16.1 0.00 0.00 0.00 33 1017.7
20260503172342 14 221 1.6 20.9 0.00 0.00 0.00 32 1018.1
20260503171838 15 345 16.1 20.9 0.00 0.00 0.00 35 1017.9
20260503171335 14 256 11.3 20.9 0.00 0.00 0.00 35 1018.0
20260503170832 15 316 14.5 29.0 0.00 0.00 0.00 33 1017.9
20260503170328 15 163 0.0 11.3 0.00 0.00 0.00 37 1018.1
20260503150721 12 307 9.7 20.9 0.00 0.00 0.00 36 1019.1
20260503150217 12 275 14.5 25.7 0.00 0.00 0.00 36 1019.1
20260503140141 10 335 14.5 17.7 0.00 0.00 0.00 42 1019.3
20260503131111 10 307 9.7 17.7 0.00 0.00 0.00 47 1019.7
20260503130609 9 22 12.9 22.5 0.00 0.00 0.00 47 1019.4
20260503130106 9 318 12.9 16.1 0.00 0.00 0.00 49 1019.6
20260503110458 3 171 0.0 3.2 0.00 0.00 0.00 76 1018.6
20260503090344 5 342 1.6 3.2 0.00 0.00 0.00 64 1017.4
20260503081311 6 335 4.8 11.3 0.00 0.00 0.00 62 1017.4
20260503080808 6 327 4.8 4.8 0.00 0.00 0.00 63 1017.3
20260503080305 6 289 6.4 11.3 0.00 0.00 0.00 63 1017.3
20260503072741 5 243 0.0 0.0 0.00 0.00 0.00 70 1016.8
20260503072238 5 245 1.6 3.2 0.00 0.00 0.00 71 1016.8
20260503071734 5 246 0.0 3.2 0.00 0.00 0.00 69 1016.7
20260503071231 5 247 0.0 0.0 0.00 0.00 0.00 69 1016.8
20260503070728 5 247 0.0 0.0 0.00 0.00 0.00 68 1017.0
20260503070226 5 252 3.2 4.8 0.00 0.00 0.00 66 1016.6
20260503060151 6 302 3.2 8.0 0.00 0.00 0.00 61 1016.6
20260503054638 6 329 6.4 11.3 0.00 0.00 0.00 60 1016.4
20260503054135 6 326 6.4 16.1 0.00 0.00 0.00 59 1016.5
20260503053633 6 297 4.8 8.0 0.00 0.00 0.00 62 1016.5
20260503053132 5 342 11.3 16.1 0.00 0.00 0.00 65 1016.5
20260503052628 3 254 8.0 11.3 0.00 0.00 0.00 76 1016.5
20260503052124 3 163 0.0 3.2 0.00 0.00 0.00 75 1016.2
20260503051619 3 191 3.2 3.2 0.00 0.00 0.00 75 1016.3
20260503051118 3 121 1.6 3.2 0.00 0.00 0.00 75 1016.4
20260503050614 3 248 1.6 3.2 0.00 0.00 0.00 74 1016.5
20260503050110 3 191 0.0 4.8 0.00 0.00 0.00 74 1016.6
20260503045608 3 149 0.0 0.0 0.00 0.00 0.00 74 1016.4
20260503045105 4 160 0.0 3.2 0.00 0.00 0.00 72 1016.5
20260503044601 3 168 0.0 3.2 0.00 0.00 0.00 72 1016.9
20260503044059 3 169 1.6 3.2 0.00 0.00 0.00 72 1016.6
20260503043555 4 188 0.0 3.2 0.00 0.00 0.00 70 1016.6
20260503043052 3 178 3.2 4.8 0.00 0.00 0.00 72 1016.5
20260503042549 4 161 0.0 0.0 0.00 0.00 0.00 71 1016.7
20260503042045 4 164 0.0 0.0 0.00 0.00 0.00 70 1016.7
20260503041542 5 164 0.0 0.0 0.00 0.00 0.00 67 1016.5
20260503041040 5 160 0.0 0.0 0.00 0.00 0.00 66 1016.6
20260503040537 6 134 1.6 3.2 0.00 0.00 0.00 65 1016.6
20260503040034 6 202 0.0 3.2 0.00 0.00 0.00 62 1016.5
20260503035531 6 132 0.0 3.2 0.00 0.00 0.00 60 1016.5
20260503035029 7 100 3.2 4.8 0.00 0.00 0.00 59 1016.5
20260503034526 7 321 6.4 8.0 0.00 0.00 0.00 58 1016.5
20260503034022 7 197 0.0 3.2 0.00 0.00 0.00 58 1016.5
20260503033520 7 168 0.0 3.2 0.00 0.00 0.00 58 1016.5
20260503033018 7 158 0.0 3.2 0.00 0.00 0.00 57 1016.4
20260503032516 7 248 3.2 4.8 0.00 0.00 0.00 57 1016.5
20260503032014 7 211 1.6 4.8 0.00 0.00 0.00 56 1016.4
20260503031511 8 330 4.8 8.0 0.00 0.00 0.00 55 1016.8
20260503031008 7 130 0.0 3.2 0.00 0.00 0.00 56 1016.6
20260503030504 7 133 0.0 3.2 0.00 0.00 0.00 56 1016.4
20260503030001 8 156 0.0 0.0 0.00 0.00 0.00 55 1016.6
20260503025458 8 320 11.3 12.9 0.00 0.00 0.00 54 1016.7
20260503024956 8 261 3.2 4.8 0.00 0.00 0.00 54 1016.6
20260503024451 8 335 8.0 11.3 0.00 0.00 0.00 53 1016.5
20260503023949 8 157 0.0 12.9 0.00 0.00 0.00 53 1016.5
20260503023446 8 95 0.0 11.3 0.00 0.00 0.00 53 1016.5
20260503022943 8 26 4.8 11.3 0.00 0.00 0.00 53 1016.4
20260503022438 9 290 4.8 8.0 0.00 0.00 0.00 52 1016.5
20260503021934 9 313 4.8 12.9 0.00 0.00 0.00 52 1016.2
20260503021430 10 319 4.8 16.1 0.00 0.00 0.00 51 1016.2
20260503020928 10 314 8.0 16.1 0.00 0.00 0.00 50 1016.4
20260503020425 10 16 8.0 12.9 0.00 0.00 0.00 49 1016.3
20260503015922 10 299 16.1 20.9 0.00 0.00 0.00 49 1016.1
20260503015419 10 64 11.3 22.5 0.00 0.00 0.00 49 1016.2
20260503014914 10 81 4.8 22.5 0.00 0.00 0.00 48 1016.1
20260503014412 10 40 6.4 20.9 0.00 0.00 0.00 48 1016.0
20260503013910 10 333 4.8 20.9 0.00 0.00 0.00 48 1016.0
20260503013406 10 343 11.3 17.7 0.00 0.00 0.00 48 1015.9
20260503012903 10 9 4.8 11.3 0.00 0.00 0.00 48 1015.8
20260503012401 10 231 1.6 4.8 0.00 0.00 0.00 48 1015.9
20260503011857 10 307 6.4 16.1 0.00 0.00 0.00 47 1015.5
20260503011355 11 185 1.6 4.8 0.00 0.00 0.00 48 1015.6
20260503010851 11 338 11.3 17.7 0.00 0.00 0.00 47 1015.6
20260503010348 11 36 3.2 4.8 0.00 0.00 0.00 48 1015.3
20260503005845 11 136 1.6 4.8 0.00 0.00 0.00 48 1015.3
20260503005343 11 219 3.2 16.1 0.00 0.00 0.00 47 1015.3
20260503004838 11 351 4.8 8.0 0.00 0.00 0.00 47 1014.9
20260503004336 11 339 8.0 16.1 0.00 0.00 0.00 46 1014.8
20260503003833 11 332 4.8 11.3 0.00 0.00 0.00 47 1014.9
20260503003330 11 359 8.0 11.3 0.00 0.00 0.00 46 1014.8
20260503002827 11 322 8.0 12.9 0.00 0.00 0.00 45 1014.7
20260503002324 11 156 0.0 3.2 0.00 0.00 0.00 45 1014.7
20260503001821 11 326 4.8 8.0 0.00 0.00 0.00 44 1014.7
20260503001317 11 221 1.6 4.8 0.00 0.00 0.00 45 1014.4
20260503000815 11 179 0.0 3.2 0.00 0.00 0.00 46 1014.3
20260503000312 11 194 0.0 8.0 0.00 0.00 0.00 44 1014.4
20260502235809 12 47 3.2 4.8 0.00 0.00 0.00 43 1014.3
20260502235306 12 343 1.6 4.8 0.00 0.00 0.00 42 1014.4
20260502234803 12 357 8.0 12.9 0.00 0.00 0.00 42 1014.0
20260502234300 12 345 6.4 11.3 0.00 0.00 0.00 41 1014.1
20260502233756 12 336 8.0 16.1 0.00 0.00 0.00 40 1013.8
20260502233253 12 313 8.0 12.9 0.00 0.00 0.00 41 1013.9
20260502232749 12 332 8.0 11.3 0.00 0.00 0.00 41 1013.8
20260502232246 12 308 4.8 11.3 0.00 0.00 0.00 40 1013.9
20260502231742 12 353 16.1 20.9 0.00 0.00 0.00 40 1013.9
20260502231240 12 313 8.0 11.3 0.00 0.00 0.00 39 1013.7
20260502230739 12 338 8.0 12.9 0.00 0.00 0.00 39 1013.8
20260502230237 12 0 14.5 20.9 0.00 0.00 0.00 38 1013.7
20260502225732 13 52 3.2 12.9 0.00 0.00 0.00 37 1013.6